Time,TemperatureF,DewpointF,PressureIn,WindDirection,WindDirectionDegrees,WindSpeedMPH,WindSpeedGustMPH,Humidity,HourlyPrecipIn,Conditions,Clouds,dailyrainin,SoftwareType,DateUTC
2013-03-11 00:00:00,59.6,47.0,30.10,NE,44,4.0,16.0,63,0.00,,---,0.00,VWS V14.01,2013-03-11 04:00:00,
2013-03-11 00:05:00,59.3,47.1,30.10,ENE,78,7.0,7.0,64,0.00,,---,0.00,VWS V14.01,2013-03-11 04:05:00,
2013-03-11 00:10:00,59.2,47.0,30.09,NE,46,11.0,12.0,64,0.00,,---,0.00,VWS V14.01,2013-03-11 04:10:00,
2013-03-11 00:15:00,59.0,47.3,30.09,NE,55,6.0,12.0,65,0.00,,---,0.00,VWS V14.01,2013-03-11 04:15:00,
2013-03-11 00:20:00,58.7,47.0,30.09,ENE,60,6.0,12.0,65,0.00,,---,0.00,VWS V14.01,2013-03-11 04:20:00,
2013-03-11 00:25:00,58.6,46.9,30.09,NE,51,5.0,13.0,65,0.00,,---,0.00,VWS V14.01,2013-03-11 04:25:00,
2013-03-11 00:30:00,58.3,47.0,30.09,NE,37,5.0,14.0,66,0.00,,---,0.00,VWS V14.01,2013-03-11 04:30:00,
2013-03-11 00:35:00,58.1,46.8,30.09,ENE,67,5.0,9.0,66,0.00,,---,0.00,VWS V14.01,2013-03-11 04:35:00,
2013-03-11 00:40:00,58.1,47.2,30.09,NE,49,4.0,9.0,67,0.00,,---,0.00,VWS V14.01,2013-03-11 04:40:00,
2013-03-11 00:45:00,57.9,47.0,30.09,NE,49,4.0,9.0,67,0.00,,---,0.00,VWS V14.01,2013-03-11 04:45:00,
2013-03-11 00:50:00,57.7,47.2,30.09,NE,55,6.0,10.0,68,0.00,,---,0.00,VWS V14.01,2013-03-11 04:50:00,
2013-03-11 00:55:00,57.7,47.2,30.09,NE,55,5.0,10.0,68,0.00,,---,0.00,VWS V14.01,2013-03-11 04:55:00,
2013-03-11 01:00:00,57.4,47.3,30.09,NE,37,7.0,10.0,69,0.00,,---,0.00,VWS V14.01,2013-03-11 05:00:00,
2013-03-11 01:05:00,57.3,47.2,30.09,NE,40,4.0,5.0,69,0.00,,---,0.00,VWS V14.01,2013-03-11 05:05:00,
2013-03-11 01:10:00,57.1,47.4,30.09,NE,35,4.0,9.0,70,0.00,,---,0.00,VWS V14.01,2013-03-11 05:10:00,
2013-03-11 01:15:00,57.0,47.3,30.09,NE,44,4.0,9.0,70,0.00,,---,0.00,VWS V14.01,2013-03-11 05:15:00,
2013-03-11 01:20:00,56.9,47.2,30.09,NE,44,4.0,10.0,70,0.00,,---,0.00,VWS V14.01,2013-03-11 05:20:00,
2013-03-11 01:25:00,56.6,47.3,30.09,NE,44,3.0,10.0,71,0.00,,---,0.00,VWS V14.01,2013-03-11 05:25:00,
2013-03-11 01:30:00,56.4,47.1,30.09,NE,42,3.0,10.0,71,0.00,,---,0.00,VWS V14.01,2013-03-11 05:30:00,
2013-03-11 01:35:00,56.3,47.4,30.09,NE,44,5.0,5.0,72,0.00,,---,0.00,VWS V14.01,2013-03-11 05:35:00,
2013-03-11 01:40:00,56.1,47.6,30.09,NE,42,5.0,7.0,73,0.00,,---,0.00,VWS V14.01,2013-03-11 05:40:00,
2013-03-11 01:45:00,56.1,47.6,30.09,NE,44,3.0,7.0,73,0.00,,---,0.00,VWS V14.01,2013-03-11 05:45:00,
2013-03-11 01:50:00,56.1,47.9,30.09,NE,38,3.0,8.0,74,0.00,,---,0.00,VWS V14.01,2013-03-11 05:50:00,
2013-03-11 01:55:00,56.0,48.2,30.08,NE,42,5.0,8.0,75,0.00,,---,0.00,VWS V14.01,2013-03-11 05:55:00,
2013-03-11 02:00:00,56.0,48.2,30.08,NE,41,5.0,10.0,75,0.00,,---,0.00,VWS V14.01,2013-03-11 06:00:00,
2013-03-11 02:05:00,55.9,48.1,30.08,NE,46,6.0,6.0,75,0.00,,---,0.00,VWS V14.01,2013-03-11 06:05:00,
2013-03-11 02:10:00,55.8,48.4,30.07,NNE,23,6.0,11.0,76,0.00,,---,0.00,VWS V14.01,2013-03-11 06:10:00,
2013-03-11 02:15:00,55.8,48.7,30.08,NE,37,4.0,11.0,77,0.00,,---,0.00,VWS V14.01,2013-03-11 06:15:00,
2013-03-11 02:20:00,55.8,48.7,30.07,NE,35,6.0,13.0,77,0.00,,---,0.00,VWS V14.01,2013-03-11 06:20:00,
2013-03-11 02:25:00,55.7,49.0,30.08,NE,34,3.0,13.0,78,0.00,,---,0.00,VWS V14.01,2013-03-11 06:25:00,
2013-03-11 02:30:00,55.6,49.2,30.07,NE,40,4.0,13.0,79,0.00,,---,0.00,VWS V14.01,2013-03-11 06:30:00,
2013-03-11 02:35:00,55.7,49.6,30.07,NE,42,4.0,4.0,80,0.00,,---,0.00,VWS V14.01,2013-03-11 06:35:00,
2013-03-11 02:40:00,55.7,49.6,30.08,NE,41,8.0,9.0,80,0.00,,---,0.00,VWS V14.01,2013-03-11 06:40:00,
2013-03-11 02:45:00,55.8,50.1,30.08,ENE,77,5.0,9.0,81,0.00,,---,0.00,VWS V14.01,2013-03-11 06:45:00,
2013-03-11 02:50:00,55.8,50.1,30.08,NE,56,4.0,9.0,81,0.00,,---,0.00,VWS V14.01,2013-03-11 06:50:00,
2013-03-11 02:55:00,55.7,50.0,30.07,NE,48,4.0,10.0,81,0.00,,---,0.00,VWS V14.01,2013-03-11 06:55:00,
2013-03-11 03:00:00,55.8,50.4,30.07,NE,49,6.0,10.0,82,0.00,,---,0.00,VWS V14.01,2013-03-11 07:00:00,
2013-03-11 03:05:00,55.8,50.4,30.07,NE,49,5.0,5.0,82,0.00,,---,0.00,VWS V14.01,2013-03-11 07:05:00,
2013-03-11 03:10:00,55.8,50.4,30.07,NE,44,7.0,10.0,82,0.00,,---,0.00,VWS V14.01,2013-03-11 07:10:00,
2013-03-11 03:15:00,55.8,50.4,30.07,ENE,62,4.0,14.0,82,0.00,,---,0.00,VWS V14.01,2013-03-11 07:15:00,
2013-03-11 03:20:00,55.9,50.8,30.06,ENE,59,3.0,14.0,83,0.00,,---,0.00,VWS V14.01,2013-03-11 07:20:00,
2013-03-11 03:25:00,55.8,50.7,30.06,ENE,58,3.0,14.0,83,0.00,,---,0.00,VWS V14.01,2013-03-11 07:25:00,
2013-03-11 03:30:00,55.8,50.7,30.06,NE,49,6.0,14.0,83,0.00,,---,0.00,VWS V14.01,2013-03-11 07:30:00,
2013-03-11 03:35:00,55.8,51.0,30.06,NE,40,7.0,10.0,84,0.00,,---,0.00,VWS V14.01,2013-03-11 07:35:00,
2013-03-11 03:40:00,55.7,51.0,30.05,NE,41,3.0,10.0,84,0.00,,---,0.00,VWS V14.01,2013-03-11 07:40:00,
2013-03-11 03:45:00,55.7,51.0,30.04,ENE,58,5.0,10.0,84,0.00,,---,0.00,VWS V14.01,2013-03-11 07:45:00,
2013-03-11 03:50:00,55.6,50.8,30.04,NE,51,5.0,10.0,84,0.00,,---,0.00,VWS V14.01,2013-03-11 07:50:00,
2013-03-11 03:55:00,55.5,50.8,30.04,ENE,65,9.0,11.0,84,0.00,,---,0.00,VWS V14.01,2013-03-11 07:55:00,
2013-03-11 04:00:00,55.5,50.8,30.03,NE,51,4.0,11.0,84,0.00,,---,0.00,VWS V14.01,2013-03-11 08:00:00,
2013-03-11 04:05:00,55.4,51.0,30.03,NNE,31,6.0,11.0,85,0.00,,---,0.00,VWS V14.01,2013-03-11 08:05:00,
2013-03-11 04:10:00,55.4,51.0,30.04,NE,53,5.0,13.0,85,0.00,,---,0.00,VWS V14.01,2013-03-11 08:10:00,
2013-03-11 04:15:00,55.4,51.0,30.03,East,98,7.0,13.0,85,0.00,,---,0.00,VWS V14.01,2013-03-11 08:15:00,
2013-03-11 04:20:00,55.5,51.1,30.03,NE,56,3.0,13.0,85,0.00,,---,0.00,VWS V14.01,2013-03-11 08:20:00,
2013-03-11 04:25:00,55.5,51.1,30.03,NE,45,7.0,13.0,85,0.00,,---,0.00,VWS V14.01,2013-03-11 08:25:00,
2013-03-11 04:30:00,55.6,51.5,30.03,ESE,106,3.0,13.0,86,0.00,,---,0.00,VWS V14.01,2013-03-11 08:30:00,
2013-03-11 04:35:00,55.6,51.5,30.02,ENE,74,12.0,14.0,86,0.00,,---,0.00,VWS V14.01,2013-03-11 08:35:00,
2013-03-11 04:40:00,55.7,51.3,30.02,East,79,1.0,16.0,85,0.00,,---,0.00,VWS V14.01,2013-03-11 08:40:00,
2013-03-11 04:45:00,55.6,51.2,30.01,ENE,64,5.0,16.0,85,0.00,,---,0.00,VWS V14.01,2013-03-11 08:45:00,
2013-03-11 04:50:00,55.5,51.4,30.01,NE,42,3.0,16.0,86,0.00,,---,0.00,VWS V14.01,2013-03-11 08:50:00,
2013-03-11 04:55:00,55.4,51.3,30.02,NNE,30,6.0,16.0,86,0.00,,---,0.00,VWS V14.01,2013-03-11 08:55:00,
2013-03-11 05:00:00,55.4,51.3,30.02,NNE,33,6.0,16.0,86,0.00,,---,0.00,VWS V14.01,2013-03-11 09:00:00,
2013-03-11 05:05:00,55.4,51.3,30.01,NNE,30,9.0,9.0,86,0.00,,---,0.00,VWS V14.01,2013-03-11 09:05:00,
2013-03-11 05:10:00,55.5,51.4,30.02,ESE,103,5.0,12.0,86,0.00,,---,0.00,VWS V14.01,2013-03-11 09:10:00,
2013-03-11 05:15:00,55.5,51.4,30.02,ENE,72,3.0,13.0,86,0.00,,---,0.00,VWS V14.01,2013-03-11 09:15:00,
2013-03-11 05:20:00,55.4,51.3,30.02,ENE,75,3.0,13.0,86,0.00,,---,0.00,VWS V14.01,2013-03-11 09:20:00,
2013-03-11 05:25:00,55.5,51.4,30.02,NE,42,8.0,13.0,86,0.00,,---,0.00,VWS V14.01,2013-03-11 09:25:00,
2013-03-11 05:30:00,55.5,51.4,30.02,ENE,75,3.0,13.0,86,0.00,,---,0.00,VWS V14.01,2013-03-11 09:30:00,
2013-03-11 05:35:00,55.5,51.4,30.02,ENE,69,5.0,5.0,86,0.00,,---,0.00,VWS V14.01,2013-03-11 09:35:00,
2013-03-11 05:40:00,55.5,51.4,30.02,ESE,108,4.0,13.0,86,0.00,,---,0.00,VWS V14.01,2013-03-11 09:40:00,
2013-03-11 05:45:00,55.5,51.4,30.02,East,84,3.0,13.0,86,0.00,,---,0.00,VWS V14.01,2013-03-11 09:45:00,
2013-03-11 05:50:00,55.4,51.3,30.03,East,88,2.0,13.0,86,0.00,,---,0.00,VWS V14.01,2013-03-11 09:50:00,
2013-03-11 05:55:00,55.4,51.3,30.03,ESE,113,7.0,13.0,86,0.00,,---,0.00,VWS V14.01,2013-03-11 09:55:00,
2013-03-11 06:00:00,55.3,51.2,30.03,ESE,112,4.0,13.0,86,0.00,,---,0.00,VWS V14.01,2013-03-11 10:00:00,
2013-03-11 06:05:00,55.2,51.1,30.03,East,79,3.0,5.0,86,0.00,,---,0.00,VWS V14.01,2013-03-11 10:05:00,
2013-03-11 06:10:00,55.1,51.0,30.03,East,83,4.0,9.0,86,0.00,,---,0.00,VWS V14.01,2013-03-11 10:10:00,
2013-03-11 06:15:00,55.0,50.9,30.03,ENE,61,6.0,11.0,86,0.00,,---,0.00,VWS V14.01,2013-03-11 10:15:00,
2013-03-11 06:20:00,55.1,51.3,30.03,NE,54,3.0,13.0,87,0.00,,---,0.00,VWS V14.01,2013-03-11 10:20:00,
2013-03-11 06:25:00,55.0,50.9,30.03,East,86,6.0,13.0,86,0.00,,---,0.00,VWS V14.01,2013-03-11 10:25:00,
2013-03-11 06:30:00,54.9,51.1,30.04,ESE,103,4.0,13.0,87,0.00,,---,0.00,VWS V14.01,2013-03-11 10:30:00,
2013-03-11 06:35:00,54.9,51.1,30.04,ESE,106,4.0,5.0,87,0.00,,---,0.00,VWS V14.01,2013-03-11 10:35:00,
2013-03-11 06:40:00,54.9,51.1,30.04,NE,53,7.0,9.0,87,0.00,,---,0.00,VWS V14.01,2013-03-11 10:40:00,
2013-03-11 06:45:00,54.8,51.0,30.04,NE,47,2.0,9.0,87,0.00,,---,0.00,VWS V14.01,2013-03-11 10:45:00,
2013-03-11 06:50:00,54.8,51.0,30.04,East,92,2.0,9.0,87,0.00,,---,0.00,VWS V14.01,2013-03-11 10:50:00,
2013-03-11 06:55:00,54.8,51.0,30.04,East,91,3.0,9.0,87,0.00,,---,0.00,VWS V14.01,2013-03-11 10:55:00,
2013-03-11 07:00:00,54.7,50.9,30.04,East,90,4.0,9.0,87,0.00,,---,0.00,VWS V14.01,2013-03-11 11:00:00,
2013-03-11 07:05:00,54.7,50.9,30.04,NE,42,3.0,4.0,87,0.00,,---,0.00,VWS V14.01,2013-03-11 11:05:00,
2013-03-11 07:10:00,54.6,50.8,30.03,East,83,5.0,10.0,87,0.00,,---,0.00,VWS V14.01,2013-03-11 11:10:00,
2013-03-11 07:15:00,54.5,50.7,30.03,ENE,57,3.0,11.0,87,0.00,,---,0.00,VWS V14.01,2013-03-11 11:15:00,
2013-03-11 07:20:00,54.6,50.8,30.03,East,93,4.0,11.0,87,0.00,,---,0.00,VWS V14.01,2013-03-11 11:20:00,
2013-03-11 07:25:00,54.5,50.7,30.03,ENE,57,5.0,11.0,87,0.00,,---,0.00,VWS V14.01,2013-03-11 11:25:00,
2013-03-11 07:30:00,54.5,50.7,30.03,East,91,9.0,11.0,87,0.00,,---,0.00,VWS V14.01,2013-03-11 11:30:00,
2013-03-11 07:35:00,54.5,50.7,30.03,ENE,68,5.0,11.0,87,0.00,,---,0.00,VWS V14.01,2013-03-11 11:35:00,
2013-03-11 07:40:00,54.4,50.9,30.02,NE,51,2.0,11.0,88,0.00,,---,0.00,VWS V14.01,2013-03-11 11:40:00,
2013-03-11 07:45:00,54.3,50.8,30.02,SE,130,7.0,11.0,88,0.00,,---,0.00,VWS V14.01,2013-03-11 11:45:00,
2013-03-11 07:50:00,54.3,50.8,30.02,ENE,74,4.0,11.0,88,0.00,,---,0.00,VWS V14.01,2013-03-11 11:50:00,
2013-03-11 07:55:00,54.3,50.8,30.02,East,80,4.0,11.0,88,0.00,,---,0.00,VWS V14.01,2013-03-11 11:55:00,
2013-03-11 08:00:00,54.3,50.8,30.02,NE,38,9.0,11.0,88,0.00,,---,0.00,VWS V14.01,2013-03-11 12:00:00,
2013-03-11 08:05:00,54.5,51.0,30.01,ENE,69,3.0,11.0,88,0.00,,---,0.00,VWS V14.01,2013-03-11 12:05:00,
2013-03-11 08:10:00,54.6,51.1,30.03,East,87,9.0,9.0,88,0.00,,---,0.00,VWS V14.01,2013-03-11 12:10:00,
2013-03-11 08:15:00,54.8,51.3,30.03,East,95,4.0,15.0,88,0.00,,---,0.00,VWS V14.01,2013-03-11 12:15:00,
2013-03-11 08:20:00,54.8,51.3,30.02,NE,56,6.0,15.0,88,0.00,,---,0.00,VWS V14.01,2013-03-11 12:20:00,
2013-03-11 08:25:00,54.7,51.2,30.02,East,79,6.0,15.0,88,0.00,,---,0.00,VWS V14.01,2013-03-11 12:25:00,
2013-03-11 08:30:00,54.7,51.2,30.02,East,94,12.0,15.0,88,0.00,,---,0.00,VWS V14.01,2013-03-11 12:30:00,
2013-03-11 08:35:00,54.7,51.2,30.00,East,83,5.0,15.0,88,0.00,,---,0.00,VWS V14.01,2013-03-11 12:35:00,
2013-03-11 08:40:00,54.7,51.2,30.01,SE,125,7.0,10.0,88,0.00,,---,0.00,VWS V14.01,2013-03-11 12:40:00,
2013-03-11 08:45:00,54.8,51.3,30.01,ESE,119,5.0,11.0,88,0.00,,---,0.00,VWS V14.01,2013-03-11 12:45:00,
2013-03-11 08:50:00,54.9,51.4,30.00,ENE,70,13.0,13.0,88,0.00,,---,0.00,VWS V14.01,2013-03-11 12:50:00,
2013-03-11 08:55:00,54.9,51.4,30.00,SE,126,4.0,13.0,88,0.00,,---,0.00,VWS V14.01,2013-03-11 12:55:00,
2013-03-11 09:00:00,54.9,51.4,30.00,ENE,67,5.0,14.0,88,0.00,,---,0.00,VWS V14.01,2013-03-11 13:00:00,
2013-03-11 09:05:00,54.9,51.4,30.01,ENE,74,8.0,14.0,88,0.00,,---,0.00,VWS V14.01,2013-03-11 13:05:00,
2013-03-11 09:10:00,55.0,51.5,30.01,ESE,106,5.0,12.0,88,0.00,,---,0.00,VWS V14.01,2013-03-11 13:10:00,
2013-03-11 09:15:00,55.0,51.5,30.01,East,83,8.0,13.0,88,0.00,,---,0.00,VWS V14.01,2013-03-11 13:15:00,
2013-03-11 09:20:00,55.1,51.6,30.00,SE,130,10.0,17.0,88,0.00,,---,0.00,VWS V14.01,2013-03-11 13:20:00,
2013-03-11 09:25:00,55.1,51.3,30.00,SE,130,11.0,17.0,87,0.00,,---,0.00,VWS V14.01,2013-03-11 13:25:00,
2013-03-11 09:30:00,55.1,51.3,30.01,SSE,159,5.0,17.0,87,0.00,,---,0.00,VWS V14.01,2013-03-11 13:30:00,
2013-03-11 09:35:00,55.1,51.3,30.01,East,88,4.0,17.0,87,0.00,,---,0.00,VWS V14.01,2013-03-11 13:35:00,
2013-03-11 09:40:00,55.1,51.3,30.01,East,91,5.0,16.0,87,0.00,,---,0.00,VWS V14.01,2013-03-11 13:40:00,
2013-03-11 09:44:00,55.2,51.4,30.01,ESE,118,7.0,16.0,87,0.00,,---,0.00,VWS V14.01,2013-03-11 13:44:00,
2013-03-11 09:50:00,55.3,51.5,30.01,ENE,78,4.0,16.0,87,0.00,,---,0.00,VWS V14.01,2013-03-11 13:50:00,
2013-03-11 09:54:00,55.3,51.5,30.01,ESE,121,7.0,16.0,87,0.00,,---,0.00,VWS V14.01,2013-03-11 13:54:00,
2013-03-11 09:59:00,55.4,51.6,30.01,ESE,102,4.0,16.0,87,0.00,,---,0.00,VWS V14.01,2013-03-11 13:59:00,
2013-03-11 10:00:00,55.5,51.7,30.00,ESE,109,2.0,16.0,87,0.00,,---,0.00,VWS V14.01,2013-03-11 14:00:00,
2013-03-11 10:04:00,55.5,51.7,30.00,ESE,109,3.0,16.0,87,0.00,,---,0.00,VWS V14.01,2013-03-11 14:04:00,
2013-03-11 10:09:00,55.5,51.7,30.00,ESE,117,5.0,11.0,87,0.00,,---,0.00,VWS V14.01,2013-03-11 14:09:00,
2013-03-11 10:14:00,55.5,51.7,30.00,East,89,5.0,13.0,87,0.00,,---,0.00,VWS V14.01,2013-03-11 14:14:00,
2013-03-11 10:19:00,55.6,51.8,30.00,ESE,123,8.0,13.0,87,0.00,,---,0.00,VWS V14.01,2013-03-11 14:19:00,
2013-03-11 10:24:00,55.6,51.5,30.00,SE,136,7.0,13.0,86,0.00,,---,0.00,VWS V14.01,2013-03-11 14:24:00,
2013-03-11 10:29:00,55.6,51.8,30.00,ESE,113,13.0,13.0,87,0.00,,---,0.00,VWS V14.01,2013-03-11 14:29:00,
2013-03-11 10:30:00,55.7,51.9,30.00,East,92,8.0,15.0,87,0.00,,---,0.00,VWS V14.01,2013-03-11 14:30:00,
2013-03-11 10:34:00,55.7,51.9,30.00,ESE,111,7.0,15.0,87,0.00,,---,0.00,VWS V14.01,2013-03-11 14:34:00,
2013-03-11 10:39:00,55.8,52.0,29.99,East,83,6.0,13.0,87,0.00,,---,0.00,VWS V14.01,2013-03-11 14:39:00,
2013-03-11 10:44:00,55.9,51.8,29.99,ESE,118,7.0,15.0,86,0.00,,---,0.00,VWS V14.01,2013-03-11 14:44:00,
2013-03-11 10:49:00,56.1,52.0,29.98,East,96,7.0,15.0,86,0.00,,---,0.00,VWS V14.01,2013-03-11 14:49:00,
2013-03-11 10:54:00,56.1,52.0,29.98,ESE,123,11.0,15.0,86,0.00,,---,0.00,VWS V14.01,2013-03-11 14:54:00,
2013-03-11 10:59:00,56.2,52.1,29.98,SE,132,11.0,15.0,86,0.00,,---,0.00,VWS V14.01,2013-03-11 14:59:00,
2013-03-11 11:00:00,56.4,52.3,29.98,ESE,118,5.0,15.0,86,0.00,,---,0.00,VWS V14.01,2013-03-11 15:00:00,
2013-03-11 11:04:00,56.4,52.3,29.98,SSE,155,10.0,15.0,86,0.00,,---,0.00,VWS V14.01,2013-03-11 15:04:00,
2013-03-11 11:09:00,56.5,52.0,29.97,SE,125,13.0,13.0,85,0.00,,---,0.00,VWS V14.01,2013-03-11 15:09:00,
2013-03-11 11:14:00,56.8,52.3,29.97,East,98,3.0,18.0,85,0.00,,---,0.00,VWS V14.01,2013-03-11 15:14:00,
2013-03-11 11:19:00,57.0,52.5,29.97,East,88,11.0,18.0,85,0.00,,---,0.00,VWS V14.01,2013-03-11 15:19:00,
2013-03-11 11:24:00,57.0,52.5,29.97,ENE,78,7.0,18.0,85,0.00,,---,0.00,VWS V14.01,2013-03-11 15:24:00,
2013-03-11 11:29:00,57.1,52.6,29.97,East,88,7.0,18.0,85,0.00,,---,0.00,VWS V14.01,2013-03-11 15:29:00,
2013-03-11 11:30:00,57.2,52.7,29.98,SSE,157,8.0,18.0,85,0.00,,---,0.00,VWS V14.01,2013-03-11 15:30:00,
2013-03-11 11:34:00,57.2,52.7,29.98,SE,132,11.0,18.0,85,0.00,,---,0.00,VWS V14.01,2013-03-11 15:34:00,
2013-03-11 11:39:00,57.4,52.9,29.97,SE,145,6.0,12.0,85,0.00,,---,0.00,VWS V14.01,2013-03-11 15:39:00,
2013-03-11 11:44:00,57.5,52.7,29.97,ENE,68,4.0,14.0,84,0.00,,---,0.00,VWS V14.01,2013-03-11 15:44:00,
2013-03-11 11:49:00,57.6,52.8,29.97,ENE,57,4.0,14.0,84,0.00,,---,0.00,VWS V14.01,2013-03-11 15:49:00,
2013-03-11 11:54:00,57.7,52.9,29.97,ENE,61,7.0,16.0,84,0.00,,---,0.00,VWS V14.01,2013-03-11 15:54:00,
2013-03-11 11:59:00,57.7,52.9,29.96,ESE,119,9.0,16.0,84,0.00,,---,0.00,VWS V14.01,2013-03-11 15:59:00,
2013-03-11 12:00:00,57.7,52.9,29.96,SE,129,11.0,16.0,84,0.00,,---,0.00,VWS V14.01,2013-03-11 16:00:00,
2013-03-11 12:04:00,57.7,52.9,29.96,East,83,3.0,16.0,84,0.00,,---,0.00,VWS V14.01,2013-03-11 16:04:00,
2013-03-11 12:09:00,57.8,53.0,29.96,NE,51,4.0,13.0,84,0.00,,---,0.00,VWS V14.01,2013-03-11 16:09:00,
2013-03-11 12:14:00,57.8,53.0,29.96,East,80,6.0,16.0,84,0.00,,---,0.00,VWS V14.01,2013-03-11 16:14:00,
2013-03-11 12:19:00,58.0,53.2,29.96,East,80,9.0,16.0,84,0.00,,---,0.00,VWS V14.01,2013-03-11 16:19:00,
2013-03-11 12:24:00,58.1,53.3,29.95,ENE,77,5.0,16.0,84,0.00,,---,0.00,VWS V14.01,2013-03-11 16:24:00,
2013-03-11 12:29:00,58.3,53.2,29.95,ENE,66,5.0,16.0,83,0.00,,---,0.00,VWS V14.01,2013-03-11 16:29:00,
2013-03-11 12:30:00,58.7,53.6,29.94,NE,43,7.0,16.0,83,0.00,,---,0.00,VWS V14.01,2013-03-11 16:30:00,
2013-03-11 12:34:00,58.6,53.5,29.94,NE,52,6.0,16.0,83,0.00,,---,0.00,VWS V14.01,2013-03-11 16:34:00,
2013-03-11 12:39:00,58.9,53.4,29.94,ENE,68,4.0,14.0,82,0.00,,---,0.00,VWS V14.01,2013-03-11 16:39:00,
2013-03-11 12:44:00,59.0,53.5,29.93,NE,54,11.0,17.0,82,0.00,,---,0.00,VWS V14.01,2013-03-11 16:44:00,
2013-03-11 12:49:00,59.0,53.5,29.93,East,90,6.0,17.0,82,0.00,,---,0.00,VWS V14.01,2013-03-11 16:49:00,
2013-03-11 12:54:00,59.1,53.6,29.92,ENE,75,6.0,17.0,82,0.00,,---,0.00,VWS V14.01,2013-03-11 16:54:00,
2013-03-11 12:59:00,59.3,53.5,29.91,NE,49,7.0,17.0,81,0.00,,---,0.00,VWS V14.01,2013-03-11 16:59:00,
2013-03-11 13:00:00,59.6,53.8,29.91,NE,55,3.0,18.0,81,0.00,,---,0.00,VWS V14.01,2013-03-11 17:00:00,
2013-03-11 13:04:00,59.6,53.8,29.91,NE,53,4.0,18.0,81,0.00,,---,0.00,VWS V14.01,2013-03-11 17:04:00,
2013-03-11 13:09:00,60.0,53.8,29.91,ENE,63,3.0,20.0,80,0.00,,---,0.00,VWS V14.01,2013-03-11 17:09:00,
2013-03-11 13:14:00,60.3,54.1,29.91,NE,54,4.0,20.0,80,0.00,,---,0.00,VWS V14.01,2013-03-11 17:14:00,
2013-03-11 13:19:00,60.8,54.3,29.90,East,80,6.0,20.0,79,0.00,,---,0.00,VWS V14.01,2013-03-11 17:19:00,
2013-03-11 13:24:00,60.9,54.3,29.90,ENE,64,4.0,20.0,79,0.00,,---,0.00,VWS V14.01,2013-03-11 17:24:00,
2013-03-11 13:29:00,60.9,54.0,29.89,ENE,65,8.0,20.0,78,0.00,,---,0.00,VWS V14.01,2013-03-11 17:29:00,
2013-03-11 13:30:00,61.0,54.1,29.90,ENE,61,1.0,20.0,78,0.00,,---,0.00,VWS V14.01,2013-03-11 17:30:00,
2013-03-11 13:34:00,61.0,54.1,29.90,ENE,61,2.0,20.0,78,0.00,,---,0.00,VWS V14.01,2013-03-11 17:34:00,
2013-03-11 13:39:00,61.6,54.7,29.89,NE,55,6.0,10.0,78,0.00,,---,0.00,VWS V14.01,2013-03-11 17:39:00,
2013-03-11 13:44:00,61.9,54.6,29.89,ENE,57,5.0,10.0,77,0.00,,---,0.00,VWS V14.01,2013-03-11 17:44:00,
2013-03-11 13:49:00,62.0,54.7,29.87,ENE,71,5.0,10.0,77,0.00,,---,0.00,VWS V14.01,2013-03-11 17:49:00,
2013-03-11 13:54:00,62.3,54.7,29.87,SE,140,7.0,11.0,76,0.00,,---,0.00,VWS V14.01,2013-03-11 17:54:00,
2013-03-11 13:59:00,62.5,54.5,29.87,ENE,67,3.0,16.0,75,0.00,,---,0.00,VWS V14.01,2013-03-11 17:59:00,
2013-03-11 14:00:00,62.6,54.6,29.87,ESE,105,10.0,16.0,75,0.00,,---,0.00,VWS V14.01,2013-03-11 18:00:00,
2013-03-11 14:04:00,62.6,54.6,29.87,East,87,7.0,16.0,75,0.00,,---,0.00,VWS V14.01,2013-03-11 18:04:00,
2013-03-11 14:09:00,62.6,54.2,29.87,ESE,109,9.0,13.0,74,0.00,,---,0.00,VWS V14.01,2013-03-11 18:09:00,
2013-03-11 14:14:00,62.6,54.6,29.87,East,90,7.0,13.0,75,0.00,,---,0.00,VWS V14.01,2013-03-11 18:14:00,
2013-03-11 14:19:00,62.5,54.5,29.87,ESE,102,6.0,13.0,75,0.00,,---,0.00,VWS V14.01,2013-03-11 18:19:00,
2013-03-11 14:24:00,62.4,54.4,29.86,ESE,111,5.0,15.0,75,0.00,,---,0.00,VWS V14.01,2013-03-11 18:24:00,
2013-03-11 14:29:00,62.3,54.3,29.87,ESE,103,6.0,15.0,75,0.00,,---,0.00,VWS V14.01,2013-03-11 18:29:00,
2013-03-11 14:30:00,62.2,54.5,29.86,ESE,115,5.0,15.0,76,0.00,,---,0.00,VWS V14.01,2013-03-11 18:30:00,
2013-03-11 14:34:00,62.2,54.5,29.86,ESE,103,9.0,15.0,76,0.00,,---,0.00,VWS V14.01,2013-03-11 18:34:00,
2013-03-11 14:39:00,62.2,54.2,29.86,SE,124,9.0,11.0,75,0.00,,---,0.00,VWS V14.01,2013-03-11 18:39:00,
2013-03-11 14:44:00,62.2,54.5,29.85,ESE,117,6.0,11.0,76,0.00,,---,0.00,VWS V14.01,2013-03-11 18:44:00,
2013-03-11 14:49:00,62.3,54.3,29.83,NE,55,2.0,11.0,75,0.00,,---,0.00,VWS V14.01,2013-03-11 18:49:00,
2013-03-11 14:54:00,62.4,54.4,29.84,East,83,5.0,14.0,75,0.00,,---,0.00,VWS V14.01,2013-03-11 18:54:00,
2013-03-11 15:00:00,62.4,54.4,29.84,ESE,106,4.0,14.0,75,0.00,,---,0.00,VWS V14.01,2013-03-11 19:00:00,
2013-03-11 15:05:00,62.4,54.4,29.83,ESE,103,4.0,14.0,75,0.00,,---,0.00,VWS V14.01,2013-03-11 19:05:00,
2013-03-11 15:10:00,62.4,54.4,29.83,ESE,118,4.0,10.0,75,0.00,,---,0.00,VWS V14.01,2013-03-11 19:10:00,
2013-03-11 15:15:00,62.5,54.5,29.83,East,88,5.0,10.0,75,0.00,,---,0.00,VWS V14.01,2013-03-11 19:15:00,
2013-03-11 15:20:00,62.6,54.6,29.83,ENE,77,8.0,13.0,75,0.00,,---,0.00,VWS V14.01,2013-03-11 19:20:00,
2013-03-11 15:25:00,62.6,54.6,29.82,NE,46,5.0,13.0,75,0.00,,---,0.00,VWS V14.01,2013-03-11 19:25:00,
2013-03-11 15:30:00,62.8,54.4,29.82,South,171,6.0,13.0,74,0.00,,---,0.00,VWS V14.01,2013-03-11 19:30:00,
2013-03-11 15:35:00,63.0,54.6,29.84,SE,141,6.0,13.0,74,0.00,,---,0.00,VWS V14.01,2013-03-11 19:35:00,
2013-03-11 15:40:00,63.2,54.4,29.84,ESE,115,10.0,17.0,73,0.00,,---,0.00,VWS V14.01,2013-03-11 19:40:00,
2013-03-11 15:45:00,63.2,54.4,29.83,SE,127,5.0,17.0,73,0.00,,---,0.00,VWS V14.01,2013-03-11 19:45:00,
2013-03-11 15:50:00,63.2,54.4,29.82,East,98,5.0,17.0,73,0.00,,---,0.00,VWS V14.01,2013-03-11 19:50:00,
2013-03-11 15:54:00,63.1,54.3,29.82,East,88,8.0,17.0,73,0.00,,---,0.00,VWS V14.01,2013-03-11 19:54:00,
2013-03-11 15:59:00,62.6,54.9,29.82,ESE,119,9.0,17.0,76,0.00,,---,0.00,VWS V14.01,2013-03-11 19:59:00,
2013-03-11 16:00:00,61.7,55.5,29.83,East,90,6.0,17.0,80,0.01,,---,0.01,VWS V14.01,2013-03-11 20:00:00,
2013-03-11 16:04:00,61.8,55.2,29.83,East,79,4.0,17.0,79,0.01,,---,0.01,VWS V14.01,2013-03-11 20:04:00,
2013-03-11 16:09:00,60.9,55.4,29.82,East,84,10.0,13.0,82,0.04,,---,0.04,VWS V14.01,2013-03-11 20:09:00,
2013-03-11 16:14:00,60.4,55.5,29.82,SSE,164,6.0,13.0,84,0.04,,---,0.04,VWS V14.01,2013-03-11 20:14:00,
2013-03-11 16:19:00,60.1,55.9,29.81,SE,132,5.0,13.0,86,0.06,,---,0.06,VWS V14.01,2013-03-11 20:19:00,
2013-03-11 16:24:00,59.7,55.8,29.81,East,88,5.0,13.0,87,0.07,,---,0.07,VWS V14.01,2013-03-11 20:24:00,
2013-03-11 16:29:00,59.6,56.0,29.80,SE,126,3.0,13.0,88,0.08,,---,0.08,VWS V14.01,2013-03-11 20:29:00,
2013-03-11 16:30:00,59.4,56.2,29.80,East,83,9.0,13.0,89,0.08,,---,0.08,VWS V14.01,2013-03-11 20:30:00,
2013-03-11 16:34:00,59.4,56.2,29.80,East,83,6.0,13.0,89,0.08,,---,0.08,VWS V14.01,2013-03-11 20:34:00,
2013-03-11 16:39:00,59.4,56.2,29.80,East,98,4.0,12.0,89,0.10,,---,0.10,VWS V14.01,2013-03-11 20:39:00,
2013-03-11 16:44:00,59.4,56.2,29.81,West,273,9.0,12.0,89,0.11,,---,0.11,VWS V14.01,2013-03-11 20:44:00,
2013-03-11 16:49:00,59.2,56.3,29.82,West,267,7.0,12.0,90,0.12,,---,0.12,VWS V14.01,2013-03-11 20:49:00,
2013-03-11 16:54:00,58.8,56.2,29.82,West,267,3.0,12.0,91,0.15,,---,0.15,VWS V14.01,2013-03-11 20:54:00,
2013-03-11 16:59:00,58.4,56.1,29.82,West,268,3.0,12.0,92,0.23,,---,0.23,VWS V14.01,2013-03-11 20:59:00,
2013-03-11 17:00:00,58.0,55.7,29.83,West,274,15.0,15.0,92,0.30,,---,0.30,VWS V14.01,2013-03-11 21:00:00,
2013-03-11 17:04:00,58.1,55.8,29.83,West,267,9.0,15.0,92,0.29,,---,0.29,VWS V14.01,2013-03-11 21:04:00,
2013-03-11 17:09:00,57.2,54.9,29.84,West,263,6.0,15.0,92,0.32,,---,0.33,VWS V14.01,2013-03-11 21:09:00,
2013-03-11 17:14:00,56.5,54.2,29.84,West,267,3.0,16.0,92,0.36,,---,0.37,VWS V14.01,2013-03-11 21:14:00,
2013-03-11 17:19:00,56.1,53.8,29.84,West,263,2.0,16.0,92,0.38,,---,0.39,VWS V14.01,2013-03-11 21:19:00,
2013-03-11 17:24:00,55.8,53.5,29.84,West,274,1.0,16.0,92,0.40,,---,0.41,VWS V14.01,2013-03-11 21:24:00,
2013-03-11 17:29:00,55.7,53.7,29.84,West,273,1.0,16.0,93,0.42,,---,0.43,VWS V14.01,2013-03-11 21:29:00,
2013-03-11 17:30:00,55.6,53.6,29.84,West,273,2.0,16.0,93,0.43,,---,0.44,VWS V14.01,2013-03-11 21:30:00,
2013-03-11 17:34:00,55.6,53.6,29.84,West,273,3.0,16.0,93,0.43,,---,0.44,VWS V14.01,2013-03-11 21:34:00,
2013-03-11 17:39:00,55.6,53.6,29.83,West,273,0.0,5.0,93,0.37,,---,0.45,VWS V14.01,2013-03-11 21:39:00,
2013-03-11 17:44:00,55.5,53.5,29.84,West,273,2.0,5.0,93,0.38,,---,0.46,VWS V14.01,2013-03-11 21:44:00,
2013-03-11 17:49:00,55.5,53.5,29.84,West,273,0.0,5.0,93,0.40,,---,0.48,VWS V14.01,2013-03-11 21:49:00,
2013-03-11 17:54:00,55.5,53.5,29.85,West,273,1.0,5.0,93,0.41,,---,0.49,VWS V14.01,2013-03-11 21:54:00,
2013-03-11 17:59:00,55.5,53.8,29.85,West,273,0.0,5.0,94,0.42,,---,0.50,VWS V14.01,2013-03-11 21:59:00,
2013-03-11 18:00:00,55.5,53.8,29.85,West,273,0.0,5.0,94,0.44,,---,0.52,VWS V14.01,2013-03-11 22:00:00,
2013-03-11 18:04:00,55.5,53.8,29.85,West,273,0.0,5.0,94,0.44,,---,0.52,VWS V14.01,2013-03-11 22:04:00,
2013-03-11 18:09:00,55.4,53.7,29.86,West,273,3.0,4.0,94,0.23,,---,0.53,VWS V14.01,2013-03-11 22:09:00,
2013-03-11 18:14:00,55.3,53.6,29.86,West,273,5.0,5.0,94,0.25,,---,0.55,VWS V14.01,2013-03-11 22:14:00,
2013-03-11 18:19:00,55.2,53.5,29.86,West,273,0.0,5.0,94,0.28,,---,0.58,VWS V14.01,2013-03-11 22:19:00,
2013-03-11 18:24:00,55.2,53.5,29.85,West,273,0.0,5.0,94,0.29,,---,0.59,VWS V14.01,2013-03-11 22:24:00,
2013-03-11 18:29:00,55.2,53.5,29.85,West,273,2.0,5.0,94,0.31,,---,0.61,VWS V14.01,2013-03-11 22:29:00,
2013-03-11 18:30:00,55.2,53.5,29.85,West,273,0.0,5.0,94,0.32,,---,0.62,VWS V14.01,2013-03-11 22:30:00,
2013-03-11 18:34:00,55.2,53.5,29.85,West,273,0.0,5.0,94,0.32,,---,0.62,VWS V14.01,2013-03-11 22:34:00,
2013-03-11 18:39:00,55.1,53.4,29.84,West,273,2.0,3.0,94,0.20,,---,0.64,VWS V14.01,2013-03-11 22:39:00,
2013-03-11 18:44:00,55.0,53.3,29.84,West,273,0.0,3.0,94,0.22,,---,0.66,VWS V14.01,2013-03-11 22:44:00,
2013-03-11 18:49:00,55.0,53.3,29.84,West,273,0.0,3.0,94,0.23,,---,0.67,VWS V14.01,2013-03-11 22:49:00,
2013-03-11 18:54:00,54.9,53.2,29.84,West,273,4.0,4.0,94,0.25,,---,0.69,VWS V14.01,2013-03-11 22:54:00,
2013-03-11 18:59:00,54.9,53.2,29.84,West,273,0.0,4.0,94,0.27,,---,0.71,VWS V14.01,2013-03-11 22:59:00,
2013-03-11 19:00:00,54.9,53.2,29.85,West,273,2.0,4.0,94,0.28,,---,0.72,VWS V14.01,2013-03-11 23:00:00,
2013-03-11 19:04:00,54.8,53.1,29.85,West,273,0.0,4.0,94,0.28,,---,0.72,VWS V14.01,2013-03-11 23:04:00,
2013-03-11 19:09:00,54.8,53.1,29.85,West,273,1.0,4.0,94,0.22,,---,0.74,VWS V14.01,2013-03-11 23:09:00,
2013-03-11 19:14:00,54.8,53.1,29.84,West,273,2.0,4.0,94,0.24,,---,0.76,VWS V14.01,2013-03-11 23:14:00,
2013-03-11 19:19:00,54.8,53.1,29.83,West,273,2.0,4.0,94,0.26,,---,0.78,VWS V14.01,2013-03-11 23:19:00,
2013-03-11 19:24:00,54.7,53.0,29.83,West,273,4.0,5.0,94,0.28,,---,0.80,VWS V14.01,2013-03-11 23:24:00,
2013-03-11 19:29:00,54.7,53.0,29.83,WNW,296,5.0,7.0,94,0.30,,---,0.82,VWS V14.01,2013-03-11 23:29:00,
2013-03-11 19:30:00,54.7,53.0,29.82,North,5,4.0,9.0,94,0.32,,---,0.84,VWS V14.01,2013-03-11 23:30:00,
2013-03-11 19:34:00,54.7,53.0,29.82,North,360,4.0,9.0,94,0.32,,---,0.84,VWS V14.01,2013-03-11 23:34:00,
2013-03-11 19:39:00,54.7,53.0,29.82,NNE,18,5.0,7.0,94,0.22,,---,0.84,VWS V14.01,2013-03-11 23:39:00,
2013-03-11 19:44:00,54.7,53.3,29.82,NNE,25,3.0,8.0,95,0.23,,---,0.85,VWS V14.01,2013-03-11 23:44:00,
2013-03-11 19:49:00,54.7,53.3,29.82,NNE,26,4.0,8.0,95,0.24,,---,0.86,VWS V14.01,2013-03-11 23:49:00,
2013-03-11 19:54:00,54.8,53.4,29.83,NNE,26,3.0,8.0,95,0.25,,---,0.87,VWS V14.01,2013-03-11 23:54:00,
2013-03-11 19:59:00,54.8,53.4,29.82,NNE,26,2.0,8.0,95,0.26,,---,0.88,VWS V14.01,2013-03-11 23:59:00,
2013-03-11 20:00:00,54.8,53.4,29.82,NNE,25,5.0,8.0,95,0.28,,---,0.90,VWS V14.01,2013-03-12 00:00:00,
2013-03-11 20:04:00,54.8,53.4,29.82,NNE,26,2.0,8.0,95,0.27,,---,0.89,VWS V14.01,2013-03-12 00:04:00,
2013-03-11 20:09:00,54.8,53.4,29.82,NNE,25,3.0,7.0,95,0.19,,---,0.91,VWS V14.01,2013-03-12 00:09:00,
2013-03-11 20:14:00,54.9,53.5,29.82,NNE,25,1.0,7.0,95,0.20,,---,0.92,VWS V14.01,2013-03-12 00:14:00,
2013-03-11 20:19:00,54.9,53.5,29.82,NNE,25,3.0,7.0,95,0.21,,---,0.93,VWS V14.01,2013-03-12 00:19:00,
2013-03-11 20:24:00,54.9,53.5,29.82,NNE,26,4.0,8.0,95,0.22,,---,0.94,VWS V14.01,2013-03-12 00:24:00,
2013-03-11 20:29:00,54.9,53.5,29.81,NNE,33,5.0,9.0,95,0.23,,---,0.95,VWS V14.01,2013-03-12 00:29:00,
2013-03-11 20:30:00,55.0,53.6,29.81,NNE,30,5.0,10.0,95,0.24,,---,0.96,VWS V14.01,2013-03-12 00:30:00,
2013-03-11 20:34:00,55.0,53.6,29.81,NNE,31,4.0,10.0,95,0.24,,---,0.96,VWS V14.01,2013-03-12 00:34:00,
2013-03-11 20:39:00,55.0,53.6,29.81,NNE,29,5.0,9.0,95,0.13,,---,0.97,VWS V14.01,2013-03-12 00:39:00,
2013-03-11 20:45:00,55.0,53.6,29.82,NNE,29,6.0,6.0,95,0.14,,---,0.98,VWS V14.01,2013-03-12 00:45:00,
2013-03-11 20:50:00,55.0,53.6,29.82,NNE,28,3.0,7.0,95,0.15,,---,0.99,VWS V14.01,2013-03-12 00:50:00,
2013-03-11 20:55:00,55.0,53.6,29.82,NNE,28,6.0,7.0,95,0.17,,---,1.01,VWS V14.01,2013-03-12 00:55:00,
2013-03-11 21:00:00,55.0,53.6,29.82,NNE,25,5.0,7.0,95,0.18,,---,1.02,VWS V14.01,2013-03-12 01:00:00,
2013-03-11 21:05:00,55.0,53.6,29.82,NNE,25,1.0,1.0,95,0.14,,---,1.04,VWS V14.01,2013-03-12 01:05:00,
2013-03-11 21:10:00,55.0,53.6,29.81,NNE,25,0.0,2.0,95,0.16,,---,1.06,VWS V14.01,2013-03-12 01:10:00,
2013-03-11 21:15:00,55.0,53.6,29.81,NNE,25,5.0,5.0,95,0.18,,---,1.08,VWS V14.01,2013-03-12 01:15:00,
2013-03-11 21:20:00,55.1,53.7,29.80,NNE,33,5.0,9.0,95,0.18,,---,1.08,VWS V14.01,2013-03-12 01:20:00,
2013-03-11 21:25:00,55.2,53.8,29.80,NE,45,3.0,11.0,95,0.18,,---,1.08,VWS V14.01,2013-03-12 01:25:00,
2013-03-11 21:30:00,55.3,53.9,29.81,NE,40,8.0,11.0,95,0.18,,---,1.08,VWS V14.01,2013-03-12 01:30:00,
2013-03-11 21:35:00,55.4,54.0,29.81,NE,38,5.0,6.0,95,0.12,,---,1.08,VWS V14.01,2013-03-12 01:35:00,
2013-03-11 21:40:00,55.4,54.0,29.80,NE,38,4.0,7.0,95,0.13,,---,1.09,VWS V14.01,2013-03-12 01:40:00,
2013-03-11 21:45:00,55.4,54.0,29.81,NE,38,3.0,7.0,95,0.13,,---,1.09,VWS V14.01,2013-03-12 01:45:00,
2013-03-11 21:50:00,55.5,54.1,29.81,NE,38,3.0,7.0,95,0.13,,---,1.09,VWS V14.01,2013-03-12 01:50:00,
2013-03-11 21:55:00,55.6,54.2,29.80,NE,37,4.0,7.0,95,0.13,,---,1.09,VWS V14.01,2013-03-12 01:55:00,
2013-03-11 22:00:00,55.6,54.2,29.81,NE,36,3.0,9.0,95,0.13,,---,1.09,VWS V14.01,2013-03-12 02:00:00,
2013-03-11 22:05:00,55.6,54.2,29.81,NE,36,2.0,2.0,95,0.05,,---,1.09,VWS V14.01,2013-03-12 02:05:00,
2013-03-11 22:10:00,55.6,54.2,29.81,NE,36,1.0,2.0,95,0.05,,---,1.09,VWS V14.01,2013-03-12 02:10:00,
2013-03-11 22:15:00,55.6,54.2,29.81,NE,36,2.0,3.0,95,0.06,,---,1.10,VWS V14.01,2013-03-12 02:15:00,
2013-03-11 22:20:00,55.7,54.3,29.81,NE,36,1.0,3.0,95,0.06,,---,1.10,VWS V14.01,2013-03-12 02:20:00,
2013-03-11 22:25:00,55.8,54.4,29.82,NE,36,4.0,5.0,95,0.06,,---,1.10,VWS V14.01,2013-03-12 02:25:00,
2013-03-11 22:30:00,55.7,54.3,29.82,West,275,3.0,8.0,95,0.07,,---,1.11,VWS V14.01,2013-03-12 02:30:00,
2013-03-11 22:35:00,55.4,54.0,29.82,West,269,3.0,4.0,95,0.03,,---,1.11,VWS V14.01,2013-03-12 02:35:00,
2013-03-11 22:40:00,55.3,53.9,29.82,West,273,4.0,8.0,95,0.03,,---,1.11,VWS V14.01,2013-03-12 02:40:00,
2013-03-11 22:45:00,55.2,53.8,29.82,West,271,3.0,8.0,95,0.03,,---,1.11,VWS V14.01,2013-03-12 02:45:00,
2013-03-11 22:50:00,55.1,53.7,29.82,West,276,2.0,8.0,95,0.03,,---,1.11,VWS V14.01,2013-03-12 02:50:00,
2013-03-11 22:55:00,55.0,53.6,29.83,West,272,3.0,10.0,95,0.04,,---,1.12,VWS V14.01,2013-03-12 02:55:00,
2013-03-11 23:00:00,54.8,53.4,29.82,West,272,4.0,10.0,95,0.04,,---,1.12,VWS V14.01,2013-03-12 03:00:00,
2013-03-11 23:05:00,54.6,53.2,29.82,West,271,3.0,10.0,95,0.05,,---,1.13,VWS V14.01,2013-03-12 03:05:00,
2013-03-11 23:10:00,54.5,53.1,29.82,West,271,0.0,4.0,95,0.04,,---,1.13,VWS V14.01,2013-03-12 03:10:00,
2013-03-11 23:15:00,54.5,53.1,29.82,West,271,1.0,4.0,95,0.05,,---,1.14,VWS V14.01,2013-03-12 03:15:00,
2013-03-11 23:20:00,54.4,53.0,29.82,West,272,5.0,7.0,95,0.05,,---,1.14,VWS V14.01,2013-03-12 03:20:00,
2013-03-11 23:25:00,54.3,52.9,29.83,West,272,4.0,7.0,95,0.05,,---,1.14,VWS V14.01,2013-03-12 03:25:00,
2013-03-11 23:30:00,54.2,52.8,29.83,West,271,2.0,7.0,95,0.06,,---,1.15,VWS V14.01,2013-03-12 03:30:00,
2013-03-11 23:35:00,54.1,52.7,29.82,West,271,1.0,7.0,95,0.06,,---,1.15,VWS V14.01,2013-03-12 03:35:00,
2013-03-11 23:40:00,54.1,52.7,29.82,West,271,4.0,6.0,95,0.04,,---,1.15,VWS V14.01,2013-03-12 03:40:00,
2013-03-11 23:45:00,54.0,52.6,29.82,West,274,2.0,6.0,95,0.05,,---,1.16,VWS V14.01,2013-03-12 03:45:00,
2013-03-11 23:50:00,53.9,52.5,29.81,West,274,0.0,6.0,95,0.05,,---,1.16,VWS V14.01,2013-03-12 03:50:00,
2013-03-11 23:55:00,53.8,52.4,29.81,West,275,0.0,6.0,95,0.05,,---,1.16,VWS V14.01,2013-03-12 03:55:00,